MIDAS 3 DEB, 25793

Orbit data source: Space-Track

MIDAS 3 DEB, 25793 is space debris in LEO originally from a launch on Wed, 12 Jul 1961 UTC launched from the Air Force Western Test Range (AFWTR). Debris objects in space refer to the collection of defunct objects orbiting the Earth. Examples of debris include non-operational satellites, rocket bodies, and fragments generated from explosions, collisions, or faulty payload assembly.

Loading next visibility...
Identifier
25793, 1961-018F
Orbit
LEO
Country
Flag of USUS
Related business
Manufacturer
Unknown
Mission
Spacecraft
Bus & Motor
Unknown
Mass
Unknown
Launch date (UTC)
1961-07-12 (65 years ago)
Launch vehicle
Unknown
Launch site
Air Force Western Test Range (AFWTR)
Object type
Payload
Rocket body
Debris
Shape & HBR
Unknown shape, 1.1 m
Radar Cross Section
Medium (>0.1 m² and <1 m²)

Expand to show TLE details & history
Last TLE update: 2 months ago

TLE from 2 months ago
0 MIDAS 3 DEB
1 25793U 61018F   26138.63704879  .00000017  00000-0  55468-2 0  9994
2 25793  91.1529 217.9790 0126187 112.4845 248.9444  8.93209216399310
Epoch: 2026-05-18T15:17Z
TLE epoch observation values (Epoch: 2026-05-18T15:17:21.015Z)
Latitude
0.00001°
Longitude
112.31898°
Altitude
3,482.146 km
Speed
6.344 km/s
True Right ascension
14h 31m 54s
True Declination
0° 00' 00"
Sunlit
Object was in full shadow at epoch
Visualization orbit readout
Latitude
Unknown
Longitude
Unknown
Altitude
Unknown
Speed
Unknown
Apparent Right ascension
Unknown
Apparent Declination
Unknown
Sunlit
N/A
Visualization observer readout
Local Sidereal Time
16:15:45
Azimuth
Unknown
Elevation
Unknown
Doppler factor
Unknown
Orbital elements
Apogee altitude
3,555.616 km
Perigee altitude
3,308.038 km
Semi-major axis
9,809.964 km
Eccentricity
0.01262
Inclination
91.1529°
RAAN
217.979°
Arg. of periapsis
112.4845°
True anomaly
247.60268°
Mean anomaly
248.9444°
Eccentric anomaly
248.27277°
Mean motion
2.23379 °/min
Orbital period
161.16 mins
BSTAR
0.0055468
Loading maneuver chart data...
Computing Atmospheric mass density...
Loading historical data...
Loading historical data...
Loading historical data...
Loading historical data...
Loading historical data...
Loading historical data...
Loading historical data...
Other satellites on launch #18 in the year 1961 (1961-07-12 UTC)

Documentation

Showing up to 5 results
|